Tracking 26442 objects as of 6-Dec-2022
HD Live streaming from Space Station
objects crossing your sky now

COSMOS 982

Track COSMOS 982 now!
10-day predictions
COSMOS 982 is classified as:


NORAD ID: 10589
Int'l Code: 1978-005G
Perigee: 1,470.5 km
Apogee: 1,522.2 km
Inclination: 74.0 °
Period: 115.7 minutes
Semi major axis: 7867 km
RCS: 0.7047 m2 (medium)
Launch date: January 10, 1978
Source: Commonwealth of Independent States (former USSR) (CIS)
Launch site: PLESETSK MISSILE AND SPACE COMPLEX (PKMTR)
aabbcc
Your satellite tracking list
Your tracking list is empty




NASA's NSSDC Master Catalog

Two Line Element Set (TLE):
1 10589U 78005G   22339.83321703 -.00000025  00000-0 -64645-4 0  9997
2 10589  74.0289 121.5377 0032854  18.4746  94.5279 12.44109196 39244
Source of the keplerian elements: AFSPC